• In Hungary
  • List of Countries
  • For 7 days
  • Water Temperature
  • Satellite Maps
  • Weather Map
  • News
  • Weather Widgets
  • user-avatar
    Login

    Hourly Weather Leinfelden-Echterdingen

    Today, 14 November, Wednesday

    Time Temperature Precipitation Wind Pressure Humidity
    00:00 +6°C° 0 mm 1 mps 735 mmHg 91%
    01:00 +6°C° 0 mm 1 mps 735 mmHg 91%
    02:00 +6°C° 0 mm 1 mps 735 mmHg 92%
    03:00 +6°C° 0 mm 1 mps 735 mmHg 92%
    04:00 +6°C° 0 mm 1 mps 734 mmHg 92%
    05:00 +5°C° 0 mm 1 mps 734 mmHg 92%
    06:00 +5°C° 0 mm 1 mps 734 mmHg 92%
    07:00 +5°C° 0 mm 1 mps 734 mmHg 93%
    08:00 +6°C° 0 mm 1 mps 734 mmHg 88%
    09:00 +6°C° 0 mm 2 mps 734 mmHg 84%
    10:00 +7°C° 0 mm 2 mps 734 mmHg 80%
    11:00 +9°C° 0 mm 2 mps 733 mmHg 76%
    12:00 +10°C° 0 mm 2 mps 733 mmHg 72%
    13:00 +9°C° 0 mm 2 mps 733 mmHg 70%
    14:00 +10°C° 0 mm 1 mps 733 mmHg 73%
    15:00 +10°C° 0 mm 1 mps 733 mmHg 76%
    16:00 +10°C° 0 mm 1 mps 733 mmHg 79%
    17:00 +9°C° 0 mm 1 mps 732 mmHg 83%
    18:00 +8°C° 0 mm 1 mps 732 mmHg 87%
    19:00 +6°C° 0 mm 1 mps 732 mmHg 90%
    20:00 +6°C° 0 mm 1 mps 732 mmHg 91%
    21:00 +6°C° 0 mm 1 mps 732 mmHg 91%
    22:00 +6°C° 0 mm 1 mps 732 mmHg 91%
    23:00 +5°C° 0 mm 1 mps 732 mmHg 91%

    Tomorrow, 15 November, Thursday

    Time Temperature Precipitation Wind Pressure Humidity
    00:00 +5°C° 0 mm 1 mps 731 mmHg 91%
    01:00 +5°C° 0 mm 1 mps 731 mmHg 91%
    02:00 +5°C° 0 mm 1 mps 731 mmHg 91%
    03:00 +5°C° 0 mm 1 mps 731 mmHg 91%
    04:00 +5°C° 0 mm 1 mps 731 mmHg 91%
    05:00 +4°C° 0 mm 1 mps 731 mmHg 91%
    06:00 +4°C° 0 mm 1 mps 731 mmHg 91%
    07:00 +4°C° 0 mm 1 mps 731 mmHg 91%
    08:00 +6°C° 0 mm 1 mps 731 mmHg 86%
    09:00 +7°C° 0 mm 1 mps 731 mmHg 81%
    10:00 +8°C° 0 mm 1 mps 731 mmHg 77%
    11:00 +10°C° 0 mm 1 mps 731 mmHg 72%
    12:00 +11°C° 0 mm 1 mps 731 mmHg 67%
    13:00 +12°C° 0 mm 1 mps 730 mmHg 63%
    14:00 +11°C° 0 mm 1 mps 730 mmHg 67%
    15:00 +11°C° 0 mm 1 mps 730 mmHg 71%
    16:00 +10°C° 0 mm 1 mps 730 mmHg 74%
    17:00 +9°C° 0 mm 1 mps 730 mmHg 78%
    18:00 +7°C° 0 mm 1 mps 730 mmHg 81%
    19:00 +5°C° 0 mm 2 mps 730 mmHg 85%
    20:00 +6°C° 0 mm 1 mps 730 mmHg 85%
    21:00 +6°C° 0 mm 1 mps 730 mmHg 85%
    22:00 +5°C° 0 mm 1 mps 730 mmHg 85%
    23:00 +5°C° 0 mm 1 mps 730 mmHg 85%

    Day after tomorrow, 16 November, Friday

    Time Temperature Precipitation Wind Pressure Humidity
    00:00 +5°C° 0 mm 1 mps 730 mmHg 86%
    01:00 +4°C° 0 mm 2 mps 731 mmHg 86%
    02:00 +3°C° 0 mm 2 mps 731 mmHg 86%
    03:00 +3°C° 0 mm 2 mps 731 mmHg 87%
    04:00 +3°C° 0 mm 2 mps 731 mmHg 88%
    05:00 +3°C° 0 mm 2 mps 731 mmHg 88%
    06:00 +2°C° 0 mm 2 mps 731 mmHg 89%
    07:00 +2°C° 0 mm 2 mps 731 mmHg 89%
    08:00 +3°C° 0 mm 2 mps 731 mmHg 84%
    09:00 +3°C° 0 mm 3 mps 731 mmHg 80%
    10:00 +4°C° 0 mm 3 mps 731 mmHg 75%
    11:00 +7°C° 0 mm 3 mps 731 mmHg 69%
    12:00 +7°C° 0 mm 4 mps 731 mmHg 63%
    13:00 +8°C° 0 mm 4 mps 731 mmHg 56%
    14:00 +7°C° 0 mm 4 mps 731 mmHg 59%
    15:00 +8°C° 0 mm 3 mps 731 mmHg 61%
    16:00 +7°C° 0 mm 3 mps 730 mmHg 63%
    17:00 +5°C° 0 mm 3 mps 731 mmHg 67%
    18:00 +4°C° 0 mm 3 mps 731 mmHg 71%
    19:00 +3°C° 0 mm 3 mps 731 mmHg 75%
    20:00 +3°C° 0 mm 4 mps 731 mmHg 77%
    21:00 +3°C° 0 mm 4 mps 731 mmHg 80%
    22:00 +1°C° 0 mm 4 mps 731 mmHg 82%
    23:00 +1°C° 0 mm 4 mps 731 mmHg 84%

    17 November, Saturday

    Time Temperature Precipitation Wind Pressure Humidity
    00:00 +1°C° 0 mm 4 mps 731 mmHg 85%
    01:00 +1°C° 0 mm 4 mps 731 mmHg 86%
    02:00 0°C° 0 mm 4 mps 730 mmHg 86%
    03:00 0°C° 0 mm 4 mps 730 mmHg 86%
    04:00 0°C° 0 mm 4 mps 730 mmHg 86%
    05:00 0°C° 0 mm 4 mps 730 mmHg 86%
    06:00 -1°C° 0 mm 4 mps 730 mmHg 86%
    07:00 0°C° 0 mm 3 mps 730 mmHg 86%
    08:00 0°C° 0 mm 4 mps 730 mmHg 80%
    09:00 +1°C° 0 mm 4 mps 730 mmHg 75%
    10:00 +2°C° 0 mm 5 mps 730 mmHg 69%
    11:00 +3°C° 0 mm 5 mps 730 mmHg 64%
    12:00 +6°C° 0 mm 5 mps 730 mmHg 59%
    13:00 +7°C° 0 mm 5 mps 729 mmHg 54%
    14:00 +7°C° 0 mm 5 mps 729 mmHg 54%
    15:00 +6°C° 0 mm 5 mps 729 mmHg 54%
    16:00 +6°C° 0 mm 5 mps 729 mmHg 53%
    17:00 +5°C° 0 mm 5 mps 729 mmHg 52%
    18:00 +3°C° 0 mm 5 mps 729 mmHg 51%
    19:00 +2°C° 0 mm 5 mps 729 mmHg 50%
    20:00 +2°C° 0 mm 5 mps 729 mmHg 51%
    21:00 +1°C° 0 mm 5 mps 729 mmHg 53%
    22:00 +1°C° 0 mm 5 mps 729 mmHg 54%
    23:00 0°C° 0 mm 5 mps 729 mmHg 56%

    18 November, Sunday

    Time Temperature Precipitation Wind Pressure Humidity
    00:00 0°C° 0 mm 5 mps 728 mmHg 57%
    01:00 -1°C° 0 mm 4 mps 728 mmHg 59%
    02:00 -1°C° 0 mm 4 mps 728 mmHg 59%
    03:00 -1°C° 0 mm 4 mps 728 mmHg 60%
    04:00 -1°C° 0 mm 4 mps 727 mmHg 60%
    05:00 -2°C° 0 mm 4 mps 727 mmHg 61%
    06:00 -2°C° 0 mm 4 mps 727 mmHg 62%
    07:00 -1°C° 0 mm 3 mps 727 mmHg 63%
    08:00 -1°C° 0 mm 4 mps 727 mmHg 60%
    09:00 0°C° 0 mm 4 mps 727 mmHg 57%
    10:00 +1°C° 0 mm 4 mps 727 mmHg 54%
    11:00 +3°C° 0 mm 4 mps 727 mmHg 53%
    12:00 +4°C° 0 mm 4 mps 727 mmHg 51%
    13:00 +5°C° 0 mm 4 mps 727 mmHg 49%
    14:00 +5°C° 0 mm 4 mps 727 mmHg 53%
    15:00 +4°C° 0 mm 3 mps 727 mmHg 56%
    16:00 +4°C° 0 mm 3 mps 727 mmHg 60%
    17:00 +3°C° 0 mm 3 mps 726 mmHg 64%
    18:00 +2°C° 0 mm 3 mps 726 mmHg 69%
    19:00 +2°C° 0 mm 2 mps 726 mmHg 73%
    20:00 +1°C° 0 mm 3 mps 726 mmHg 74%
    21:00 0°C° 0 mm 3 mps 726 mmHg 76%
    22:00 0°C° 0 mm 3 mps 727 mmHg 77%
    23:00 0°C° 0 mm 3 mps 726 mmHg 78%

    19 November, Monday

    Time Temperature Precipitation Wind Pressure Humidity
    00:00 -1°C° 0 mm 2 mps 726 mmHg 79%
    01:00 -1°C° 0 mm 2 mps 726 mmHg 79%
    02:00 -1°C° 0 mm 2 mps 726 mmHg 79%
    03:00 -1°C° 0 mm 2 mps 726 mmHg 79%
    04:00 -1°C° 0 mm 2 mps 726 mmHg 79%
    05:00 -1°C° 0 mm 2 mps 726 mmHg 79%
    06:00 -2°C° 0 mm 2 mps 726 mmHg 79%
    07:00 -2°C° 0 mm 2 mps 726 mmHg 80%
    08:00 -1°C° 0 mm 3 mps 726 mmHg 72%
    09:00 -1°C° 0 mm 4 mps 727 mmHg 65%
    10:00 +1°C° 0 mm 4 mps 727 mmHg 57%
    11:00 +3°C° 0 mm 4 mps 727 mmHg 54%
    12:00 +3°C° 0 mm 5 mps 727 mmHg 50%
    13:00 +5°C° 0 mm 5 mps 726 mmHg 46%
    14:00 +3°C° 0 mm 5 mps 726 mmHg 50%
    15:00 +3°C° 0 mm 4 mps 726 mmHg 55%
    16:00 +3°C° 0 mm 4 mps 726 mmHg 59%
    17:00 +1°C° 0 mm 4 mps 726 mmHg 64%
    18:00 0°C° 0 mm 4 mps 726 mmHg 69%
    19:00 -1°C° 0 mm 4 mps 726 mmHg 74%
    20:00 -2°C° 0 mm 4 mps 726 mmHg 75%
    21:00 -2°C° 0 mm 4 mps 726 mmHg 76%
    22:00 -3°C° 0 mm 4 mps 727 mmHg 77%
    23:00 -3°C° 0 mm 4 mps 726 mmHg 78%
    Show more